#timestamp,LO_Frequency,Hit,StdDev 
1553853615.8,286046987.3,N
1553853635.6,286046987.7,N
1553853655.4,286046988.1,N
1553853675.3,286046985.6,N
1553853695.1,286046988.3,N
1553853715.8,286046987.4,N
1553853735.7,286046985.3,N
1553853755.5,286046985.8,N
1553853775.4,286046987.9,N
1553853795.2,286046986.5,N
1553853815.0,286046984.0,Y
1553853815.9,286046984.0,P
1553853835.8,286046994.6,N
1553853855.6,286046992.9,N
1553853875.5,286046991.3,N
1553853895.3,286046989.3,N
1553853915.1,286046991.3,N
1553853935.9,286046988.7,Y
1553853955.7,286046998.9,P
1553853975.5,286047000.6,N
1553853995.4,286047000.9,N
1553854015.2,286047001.9,N
1553854035.1,286047000.6,N
1553854036.0,286047000.6,N
1553854055.8,286046999.9,N
1553854075.6,286047002.2,N
1553854095.5,286047003.4,N
1553854115.3,286047005.6,N
1553854135.2,286047007.0,N
1553854155.9,286047010.2,N
1553854175.7,286047009.8,N
1553854195.6,286047015.5,Y
1553854215.4,286047014.9,P
1553854235.2,286047015.8,N
1553854255.1,286047018.3,N
1553854256.0,286047018.3,N
1553854275.8,286047019.7,Y
1553854295.7,286047009.1,P
1553854315.5,286047008.4,P
1553854335.3,286047010.6,P
1553854355.2,286047009.4,Y
1553854375.0,286047000.5,P
1553854375.9,286047000.5,N
1553854395.8,286047004.1,N
1553854415.6,286047003.8,N
1553854435.4,286047003.8,N
1553854455.3,286047001.5,N
1553854475.1,286047003.2,N
1553854495.8,286047005.7,N
1553854515.7,286047005.9,N
1553854535.5,286047004.4,N
1553854555.4,286047001.7,N
1553854575.2,286047001.5,N
1553854595.0,286047002.5,N
1553854595.9,286047002.5,N
1553854615.8,286047003.6,N
1553854635.6,286047004.7,N
1553854655.4,286047004.5,N
1553854675.3,286047006.2,N
1553854695.1,286047006.2,N
1553854715.9,286047006.5,N
1553854735.7,286047007.7,Y
1553854755.5,286047004.5,P
1553854775.4,286047006.4,P
1553854795.2,286047006.2,P
1553854815.1,286047010.5,Y
1553854816.0,286047010.5,P
1553854835.8,286047007.0,N
1553854855.6,286047010.3,P
1553854875.5,286047007.5,Y
1553854895.3,286046996.8,P
1553854915.1,286046995.5,N
1553854935.9,286046996.7,N
1553854955.7,286046995.4,N
1553854975.6,286046994.3,N
1553854995.4,286046991.3,N
1553855015.2,286046988.1,N
1553855035.1,286046987.6,N
1553855036.0,286046987.6,N
1553855055.8,286046984.4,N
1553855075.7,286046980.7,Y
1553855095.5,286046985.6,P
1553855115.3,286046986.0,P
1553855135.2,286046984.8,P
1553855155.0,286046980.6,Y
1553855155.9,286046980.6,P
1553855175.8,286046994.4,N
1553855195.6,286046990.3,N
1553855215.4,286046990.3,N
1553855235.3,286046989.3,N
1553855255.1,286046987.2,Y
1553855275.8,286047000.7,P
1553855295.7,286046998.7,N
1553855315.5,286046999.0,N
1553855335.4,286046999.3,N
1553855355.2,286046997.1,N
1553855375.0,286046997.8,N
1553855375.9,286046997.8,N
1553855395.8,286046995.2,N
1553855415.6,286046996.1,N
1553855435.4,286046996.0,N
1553855455.3,286046993.8,N
1553855475.1,286046992.3,N
1553855495.9,286046993.2,N
1553855515.7,286046990.5,Y
1553855535.5,286046992.2,P
1553855555.4,286046991.7,P
1553855575.2,286046996.2,N
1553855595.1,286046997.5,N
1553855596.0,286046997.5,N
1553855615.8,286047000.6,N
1553855635.6,286047001.0,N
1553855655.5,286047001.6,N
1553855675.3,286047008.4,N
1553855695.1,286047010.8,N
1553855715.9,286047010.1,N
1553855735.7,286047011.6,N
1553855755.6,286047012.2,N
1553855775.4,286047015.2,N
1553855795.2,286047014.3,N
1553855815.1,286047014.1,N
1553855816.0,286047014.1,N
1553855835.8,286047016.4,N
1553855855.7,286047019.3,N
1553855875.5,286047019.6,N
1553855895.3,286047022.9,N
1553855915.2,286047022.6,N
1553855935.0,286047024.0,N
1553855935.9,286047024.0,N
1553855955.7,286047026.6,N
1553855975.6,286047026.5,N
1553855995.4,286047024.9,N
1553856015.3,286047021.1,N
1553856035.1,286047017.3,N
1553856036.0,286047017.3,N
1553856055.8,286047016.1,N
1553856075.7,286047014.6,N
1553856095.5,286047014.9,N
1553856115.4,286047015.3,N
1553856135.2,286047013.6,N
1553856155.0,286047010.1,N
1553856155.9,286047010.1,N
1553856175.8,286047008.4,N
1553856195.6,286047008.2,N
1553856215.4,286047007.6,N
1553856235.3,286047006.0,N
1553856255.1,286047004.1,N
1553856275.9,286047004.2,N
1553856295.7,286047003.9,N
1553856315.5,286047001.7,N
1553856335.4,286047004.0,N
1553856355.2,286047007.4,N
1553856375.0,286047008.1,N
1553856375.9,286047008.1,N
1553856395.8,286047010.1,N
1553856415.6,286047007.8,N
1553856435.5,286047008.9,N
1553856455.3,286047009.1,N
1553856475.1,286047005.4,N
1553856495.9,286047003.5,N
1553856515.7,286047001.9,N
1553856535.5,286047000.6,N
1553856555.4,286046998.1,N
1553856575.2,286046999.0,N
1553856595.1,286046996.5,N
1553856596.0,286046996.5,N
1553856615.8,286046999.1,N
1553856635.6,286046999.0,N
1553856655.5,286046999.3,N
1553856675.3,286046997.5,N
1553856695.2,286046998.0,N
1553856715.9,286046997.8,N
1553856735.7,286046997.4,N
1553856755.6,286046995.5,N
1553856775.4,286046993.8,N
1553856795.2,286046996.3,N
1553856815.1,286046991.8,N
1553856816.0,286046991.8,N
1553856835.8,286046992.3,N
1553856855.7,286046990.1,N
1553856875.5,286046991.3,N
1553856895.3,286046989.3,N
1553856915.2,286046989.9,N
1553856935.0,286046989.6,N
1553856935.9,286046989.6,N
1553856955.8,286046987.1,N
1553856975.6,286046987.6,N
1553856995.4,286046987.3,N
1553857015.3,286046989.7,N
1553857035.1,286046986.9,N
1553857055.8,286046989.6,N
1553857075.7,286046987.6,N
1553857095.5,286046987.5,N
1553857115.4,286046987.8,N
1553857135.2,286046986.0,Y
1553857155.0,286046992.6,P
1553857155.9,286046992.6,P
1553857175.8,286046992.7,P
1553857195.6,286046992.9,Y
